Flag for Germany Weather past 2 weeks in Celle, Lower Saxony, Germany

Now
55 °F

Scattered clouds.


Feels Like: 53 °F
Forecast: 50 / 65 °F
Wind: 8 mph from West

Location: Celle Airport

Current Time: Aug 21, 2014 at 11:04:50 AM

Latest Report: Aug 21, 2014 at 10:20 AM


Visibility: N/A

Pressure: 30.01 "Hg

Humidity: 77%

Dew point: 48 °F

Location of CelleLocation

Historic Weather in Celle — Graph

°F

Celle temperature yesterday

Maximum temperature yesterday: 64 °F (at 4:20 PM)
Minimum temperature yesterday: 50 °F (at 2:20 AM)
Average temperature yesterday: 56 °F

Past Weeks' High & Low Weather Summary

 TemperatureHumidityPressure
High79 °F (Aug 8, 5:20 PM)100% (Aug 8, 1:20 AM)30.07 "Hg (Aug 8, 1:20 AM)
Low48 °F (Aug 21, 12:20 AM)38% (Aug 11, 5:20 PM)29.59 "Hg (Aug 10, 10:20 PM)
Average62 °F74%29.84 "Hg
* Reported Aug 6 9:20 AM — Aug 21 9:20 AM, Celle, Weather by CustomWeather, © 2014

Note: Actual official high and low records may vary slightly from our data, if they occured in-between our weather recording intervals... More about our weather records

Advertising

Celle weather history for previous 24 hours

 ConditionsComfort  
Time TempWeatherWind HumidityBarometerVisibility
9:20 AM
Aug 21
54 °FPassing clouds.8 mph82%30.01 "Hg5 mi
8:20 AM52 °FScattered clouds.7 mph88%30.01 "Hg4 mi
7:20 AM50 °FPartly sunny.5 mph94%30.01 "Hg4 mi
6:20 AM50 °FPartly cloudy.5 mph94%29.98 "Hg4 mi
5:20 AM50 °FPassing clouds.2 mph94%29.98 "HgN/A
4:20 AM50 °FPassing clouds.3 mph94%29.98 "HgN/A
3:20 AM52 °FPassing clouds.5 mph88%29.98 "HgN/A
2:20 AM52 °FPassing clouds.2 mph88%29.98 "HgN/A
1:20 AM50 °FPassing clouds.3 mph94%29.98 "HgN/A
12:20 AM48 °FPassing clouds.2 mph94%29.98 "HgN/A
11:20 PM
Aug 20
50 °FPassing clouds.2 mph94%29.98 "HgN/A
10:20 PM52 °FPassing clouds.No wind88%29.98 "HgN/A
9:20 PM55 °FScattered clouds.2 mph77%29.98 "HgN/A
8:20 PM57 °FScattered clouds.3 mph67%29.95 "HgN/A
7:20 PM59 °FScattered clouds.6 mph59%29.95 "HgN/A
6:20 PM61 °FScattered clouds.8 mph55%29.98 "HgN/A
5:20 PM63 °FScattered clouds.9 mph56%29.98 "HgN/A
4:20 PM64 °FScattered showers. Scattered clouds.13 mph49%29.95 "HgN/A
3:20 PM63 °FScattered clouds.12 mph56%29.95 "HgN/A
2:20 PM63 °FScattered clouds.12 mph56%29.95 "HgN/A
1:20 PM61 °FScattered clouds.10 mph59%29.95 "HgN/A
12:20 PM61 °FScattered clouds.12 mph63%29.95 "HgN/A
11:20 AM59 °FScattered clouds.14 mph68%29.95 "HgN/A
Weather by CustomWeather, © 2014

See weather overviewHow to use our weather pages